Regional Weather Roundup
Issued by NWS

Home | Current Version | Previous Version | Text Only | Print | Product List | Glossary Off
Versions: 1 2 3 4 5 6 7 8 9 10 11 12 13 14 15 16 17 18 19 20 21 22 23 24 25 26 27 28 29 30 31 32 33 34 35 36 37 38 39 40 41 42 43 44 45 46 47 48 49 50

000
ASUS43 KLOT 310900
RWRIL

ILLINOIS REGIONAL WEATHER ROUNDUP
NATIONAL WEATHER SERVICE CHICAGO/ROMEOVILLE IL
400 AM CDT THU JUL 31 2014

NOTE: "FAIR" INDICATES FEW OR NO CLOUDS BELOW 12,000 FEET WITH NO
SIGNIFICANT WEATHER AND/OR OBSTRUCTIONS TO VISIBILITY.

* THESE STATIONS ARE NOT UNDER NWS QUALITY CONTROL. THEY ALSO MAY NOT
  REPORT WEATHER SUCH AS PRECIPITATION OR FOG.

ILZ001-002-007-009-015-016-024-311000-
NORTHWEST ILLINOIS

CITY           SKY/WX    TMP DP  RH WIND       PRES   REMARKS
MOLINE         CLEAR     59  57  93 CALM      30.05S
STERLING*      CLEAR     59  55  88 W3        30.05S
$$

ILZ003-004-008-010-011-017-018-311000-
NORTH CENTRAL ILLINOIS

CITY           SKY/WX    TMP DP  RH WIND       PRES   REMARKS
ROCKFORD       CLEAR     57  53  86 S5        30.06R
$$

ILZ005-006-012>014-019>023-311000-
NORTHEAST ILLINOIS

CITY           SKY/WX    TMP DP  RH WIND       PRES   REMARKS
CHICAGO-OHARE  CLEAR     62  55  77 SW5       30.01F
CHICAGO-MIDWAY CLEAR     64  58  80 SW7       30.02F
AURORA         CLEAR     54  52  93 CALM      30.03F FOG
LANSING*       PTCLDY    54  53  95 CALM      30.03F FOG
JOLIET*        FOG       56  55  96 CALM      30.04S VSB 1/2
WAUKEGAN       CLEAR     59  56  89 SW5       30.00F
DUPAGE AIRPORT CLEAR     59  57  93 S3        30.02F FOG
WHEELING       CLEAR     62  57  83 S5        30.03S
NORTHERLY ISL    N/A     65  57  75 SW3         N/A
$$

LMZ740>746-311000-
SOUTHERN LAKE MICHIGAN

STATION/POSITION SKY/WX   TEMP    WIND        PRES    VSBY  WAVE
                          AIR SEA DIR/SP/G                  HT/PER
                          (F)     (DEG/KT/KT) (MB)    (MI)  (FT/S)
SOUTHERN BUOY              62 60  230/ 10/ 12 1016.0F         0
WAUKEGAN HARBOR            63     250/ 10/ 14   N/A
HARRISON CRIB              67     190/ 12/ 14   N/A
BURNHAM HARBOR             65     220/  4/  6   N/A
CALUMET HARBOR             63     210/  5/  5 1015.4F
MICHIGAN CITY              63     140/  5/  7   N/A
MICHIGAN CITY 6N           65 69  200/  6/  8   N/A           1
ST. JOSEPH                 66 69  180/ 10/ 12   N/A           1/ 2
$$

ILZ025>027-034>036-040-047-049-050-058-095>099-311000-
WEST-CENTRAL ILLINOIS

CITY           SKY/WX    TMP DP  RH WIND       PRES   REMARKS
QUINCY         CLEAR     62  58  86 CALM      30.08R
GALESBURG*     CLEAR     56  55  95 CALM      30.07S
MACOMB*          N/A     58  57  97 W3        30.09S
$$

ILZ028>032-037-038-041>044-048-051>054-059>061-311000-
CENTRAL ILLINOIS

CITY           SKY/WX    TMP DP  RH WIND       PRES   REMARKS
DECATUR        CLEAR     61  58  90 CALM      30.07S
PEORIA         CLEAR     62  57  83 CALM      30.06S
SPRINGFIELD    CLEAR     58  57  97 CALM      30.07S
TAYLORVILLE    NOT AVBL
$$

ILZ033-039-045-046-055>057-062-063-311000-
EAST-CENTRAL ILLINOIS

CITY           SKY/WX    TMP DP  RH WIND       PRES   REMARKS
CHAMPAIGN      PTCLDY    59  57  93 CALM      30.07S
MATTOON        CLEAR     61  58  90 S7        30.06S
$$

ILZ079-100>102-311000-
SOUTHWEST ILLINOIS

CITY           SKY/WX    TMP DP  RH WIND       PRES   REMARKS
BELLEVILLE     FOG       60  60  99 CALM      30.06S VSB 1/4
CAHOKIA*       CLEAR     60  59  96 CALM      30.06F
SPARTA*        CLEAR     57  55  94 CALM      30.08S
$$

ILZ064>066-069>071-074>076-080>082-084>086-088>090-092>094-311000-
SOUTH-CENTRAL ILLINOIS

CITY           SKY/WX    TMP DP  RH WIND       PRES   REMARKS
CARBONDALE     FOG       58  57  97 CALM      30.07F VSB 1
MT. VERNON     CLEAR     57  54  88 CALM      30.08S
SALEM*         FOG      N/A N/A N/A S3        30.08S VSB 1
$$

ILZ067-068-072-073-078-083-087-091-311000-
SOUTHEAST ILLINOIS

CITY           SKY/WX    TMP DP  RH WIND       PRES   REMARKS
LAWRENCEVILLE  CLEAR     60  58  92 S5        30.07S FOG
HARRISBURG*    FOG       58  58 100 CALM      30.09S VSB 1/4
ROBINSON*      CLEAR     60  59  96 CALM      30.08S
CARMI*         CLEAR     59  59 100 CALM      30.08R FOG
$$

ABBREVIATIONS USED IN REMARKS
   TC - TEMPERATURE IN CELSIUS
  WCI - WIND CHILL INDEX
   HX - HEAT INDEX
  VSB - VISIBILITY
$$



USA.gov is the U.S. government's official web portal to all federal, state and local government web resources and services.